Time,TemperatureF,DewpointF,PressureIn,WindDirection,WindDirectionDegrees,WindSpeedMPH,WindSpeedGustMPH,Humidity,HourlyPrecipIn,Conditions,Clouds,dailyrainin,SolarRadiationWatts/m^2,SoftwareType,DateUTC
2013-01-29 00:01:00,29.0,29.0,-100.00,South,169,8.0,23.0,100,0.00,,,0.00,0.000000,,2013-01-29 08:01:00,
2013-01-29 00:32:00,29.0,29.0,-100.00,East,79,10.0,24.0,100,0.00,,,0.00,0.000000,,2013-01-29 08:32:00,
2013-01-29 00:42:00,29.0,29.0,-100.00,East,79,10.0,24.0,100,0.00,,,0.00,0.000000,,2013-01-29 08:42:00,
2013-01-29 00:52:00,29.0,29.0,-100.00,East,79,10.0,24.0,100,0.00,,,0.00,0.000000,,2013-01-29 08:52:00,
2013-01-29 01:01:00,29.0,29.0,-100.00,East,79,10.0,24.0,100,0.00,,,0.00,0.000000,,2013-01-29 09:01:00,
2013-01-29 01:32:00,29.0,29.0,-100.00,East,88,9.0,25.0,100,0.00,,,0.00,0.000000,,2013-01-29 09:32:00,
2013-01-29 01:42:00,29.0,29.0,-100.00,East,88,9.0,25.0,100,0.00,,,0.00,0.000000,,2013-01-29 09:42:00,
2013-01-29 01:52:00,29.0,29.0,-100.00,East,88,9.0,25.0,100,0.00,,,0.00,0.000000,,2013-01-29 09:52:00,
2013-01-29 02:01:00,29.0,29.0,-100.00,East,88,9.0,25.0,100,0.00,,,0.00,0.000000,,2013-01-29 10:01:00,
2013-01-29 02:21:00,29.0,29.0,-100.00,ESE,102,9.0,27.0,100,0.00,,,0.00,0.000000,,2013-01-29 10:21:00,
2013-01-29 02:32:00,29.0,29.0,-100.00,ESE,102,9.0,27.0,100,0.00,,,0.00,0.000000,,2013-01-29 10:32:00,
2013-01-29 02:42:00,29.0,29.0,-100.00,ESE,102,9.0,27.0,100,0.00,,,0.00,0.000000,,2013-01-29 10:42:00,
2013-01-29 02:52:00,29.0,29.0,-100.00,ESE,102,9.0,27.0,100,0.00,,,0.00,0.000000,,2013-01-29 10:52:00,
2013-01-29 03:01:00,29.0,29.0,-100.00,ESE,102,9.0,27.0,100,0.00,,,0.00,0.000000,,2013-01-29 11:01:00,
2013-01-29 03:32:00,29.0,29.0,-100.00,ESE,114,6.0,23.0,100,0.00,,,0.00,0.000000,,2013-01-29 11:32:00,
2013-01-29 03:42:00,29.0,29.0,-100.00,ESE,114,6.0,23.0,100,0.00,,,0.00,0.000000,,2013-01-29 11:42:00,
2013-01-29 03:52:00,29.0,29.0,-100.00,ESE,114,6.0,23.0,100,0.00,,,0.00,0.000000,,2013-01-29 11:52:00,
2013-01-29 04:02:00,29.0,29.0,-100.00,ESE,114,6.0,23.0,100,0.00,,,0.00,0.000000,,2013-01-29 12:02:00,
2013-01-29 04:33:00,29.0,29.0,-100.00,SSW,192,5.0,22.0,100,0.00,,,0.00,0.000000,,2013-01-29 12:33:00,
2013-01-29 04:43:00,29.0,29.0,-100.00,SSW,192,5.0,22.0,100,0.00,,,0.00,0.000000,,2013-01-29 12:43:00,
2013-01-29 04:52:00,29.0,29.0,-100.00,SSW,192,5.0,22.0,100,0.00,,,0.00,0.000000,,2013-01-29 12:52:00,
2013-01-29 05:01:00,29.0,29.0,-100.00,SSW,192,5.0,22.0,100,0.00,,,0.00,0.000000,,2013-01-29 13:01:00,
2013-01-29 05:32:00,29.0,29.0,-100.00,NNW,336,6.0,22.0,100,0.00,,,0.00,0.000000,,2013-01-29 13:32:00,
2013-01-29 05:43:00,29.0,29.0,-100.00,NNW,336,6.0,22.0,100,0.00,,,0.00,0.000000,,2013-01-29 13:43:00,
2013-01-29 05:52:00,29.0,29.0,-100.00,NNW,336,6.0,22.0,100,0.00,,,0.00,0.000000,,2013-01-29 13:52:00,
2013-01-29 06:01:00,29.0,29.0,-100.00,NNW,336,6.0,22.0,100,0.00,,,0.00,0.000000,,2013-01-29 14:01:00,
2013-01-29 06:22:00,29.0,29.0,-100.00,ENE,75,6.0,17.0,100,0.00,,,0.00,0.000000,,2013-01-29 14:22:00,
2013-01-29 06:33:00,29.0,29.0,-100.00,ENE,75,6.0,17.0,100,0.00,,,0.00,0.000000,,2013-01-29 14:33:00,
2013-01-29 06:43:00,29.0,29.0,-100.00,ENE,75,6.0,17.0,100,0.00,,,0.00,0.000000,,2013-01-29 14:43:00,
2013-01-29 06:52:00,29.0,29.0,-100.00,ENE,75,6.0,17.0,100,0.00,,,0.00,0.000000,,2013-01-29 14:52:00,
2013-01-29 07:02:00,29.0,29.0,-100.00,ENE,75,6.0,17.0,100,0.00,,,0.00,0.000000,,2013-01-29 15:02:00,
2013-01-29 07:33:00,30.0,30.0,-100.00,WNW,291,7.0,18.0,100,0.00,,,0.00,0.000000,,2013-01-29 15:33:00,
2013-01-29 07:43:00,30.0,30.0,-100.00,WNW,291,7.0,18.0,100,0.00,,,0.00,0.000000,,2013-01-29 15:43:00,
2013-01-29 07:53:00,30.0,30.0,-100.00,WNW,291,7.0,18.0,100,0.00,,,0.00,0.000000,,2013-01-29 15:53:00,
2013-01-29 08:02:00,30.0,30.0,-100.00,WNW,291,7.0,18.0,100,0.00,,,0.00,0.000000,,2013-01-29 16:02:00,
2013-01-29 08:33:00,30.0,30.0,-100.00,ENE,76,7.0,20.0,100,0.00,,,0.00,0.000000,,2013-01-29 16:33:00,
2013-01-29 08:43:00,30.0,30.0,-100.00,ENE,76,7.0,20.0,100,0.00,,,0.00,0.000000,,2013-01-29 16:43:00,
2013-01-29 08:53:00,30.0,30.0,-100.00,ENE,76,7.0,20.0,100,0.00,,,0.00,0.000000,,2013-01-29 16:53:00,
2013-01-29 09:02:00,30.0,30.0,-100.00,ENE,76,7.0,20.0,100,0.00,,,0.00,0.000000,,2013-01-29 17:02:00,
2013-01-29 09:22:00,30.0,30.0,-100.00,NNW,345,7.0,19.0,100,0.00,,,0.00,0.000000,,2013-01-29 17:22:00,
2013-01-29 09:33:00,30.0,30.0,-100.00,NNW,345,7.0,19.0,100,0.00,,,0.00,0.000000,,2013-01-29 17:33:00,
2013-01-29 09:42:00,30.0,30.0,-100.00,NNW,345,7.0,19.0,100,0.00,,,0.00,0.000000,,2013-01-29 17:42:00,
2013-01-29 09:52:00,30.0,30.0,-100.00,NNW,345,7.0,19.0,100,0.00,,,0.00,0.000000,,2013-01-29 17:52:00,
2013-01-29 10:02:00,30.0,30.0,-100.00,NNW,345,7.0,19.0,100,0.00,,,0.00,0.000000,,2013-01-29 18:02:00,
2013-01-29 10:22:00,30.0,30.0,-100.00,SSW,202,7.0,18.0,100,0.00,,,0.00,0.000000,,2013-01-29 18:22:00,
2013-01-29 10:33:00,30.0,30.0,-100.00,SSW,202,7.0,18.0,100,0.00,,,0.00,0.000000,,2013-01-29 18:33:00,
2013-01-29 10:42:00,30.0,30.0,-100.00,SSW,202,7.0,18.0,100,0.00,,,0.00,0.000000,,2013-01-29 18:42:00,
2013-01-29 10:52:00,30.0,30.0,-100.00,SSW,202,7.0,18.0,100,0.00,,,0.00,0.000000,,2013-01-29 18:52:00,
2013-01-29 11:01:00,30.0,30.0,-100.00,SSW,202,7.0,18.0,100,0.00,,,0.00,0.000000,,2013-01-29 19:01:00,
2013-01-29 11:33:00,30.0,30.0,-100.00,SE,146,6.0,19.0,100,0.00,,,0.00,1.000000,,2013-01-29 19:33:00,
2013-01-29 11:42:00,30.0,30.0,-100.00,SE,146,6.0,19.0,100,0.00,,,0.00,1.000000,,2013-01-29 19:42:00,
2013-01-29 11:52:00,30.0,30.0,-100.00,SE,146,6.0,19.0,100,0.00,,,0.00,1.000000,,2013-01-29 19:52:00,
2013-01-29 12:01:00,30.0,30.0,-100.00,SE,146,6.0,19.0,100,0.00,,,0.00,1.000000,,2013-01-29 20:01:00,
2013-01-29 12:33:00,31.0,31.0,-100.00,North,355,7.0,19.0,100,0.00,,,0.00,2.000000,,2013-01-29 20:33:00,
2013-01-29 12:42:00,31.0,31.0,-100.00,North,355,7.0,19.0,100,0.00,,,0.00,2.000000,,2013-01-29 20:42:00,
2013-01-29 12:53:00,31.0,31.0,-100.00,North,355,7.0,19.0,100,0.00,,,0.00,2.000000,,2013-01-29 20:53:00,
2013-01-29 13:01:00,31.0,31.0,-100.00,North,355,7.0,19.0,100,0.00,,,0.00,2.000000,,2013-01-29 21:01:00,
2013-01-29 13:34:00,31.0,31.0,-100.00,ENE,76,8.0,22.0,100,0.00,,,0.00,1.000000,,2013-01-29 21:34:00,
2013-01-29 13:42:00,31.0,31.0,-100.00,ENE,76,8.0,22.0,100,0.00,,,0.00,1.000000,,2013-01-29 21:42:00,
2013-01-29 13:52:00,31.0,31.0,-100.00,ENE,76,8.0,22.0,100,0.00,,,0.00,1.000000,,2013-01-29 21:52:00,
2013-01-29 14:01:00,31.0,31.0,-100.00,ENE,76,8.0,22.0,100,0.00,,,0.00,1.000000,,2013-01-29 22:01:00,
2013-01-29 14:33:00,31.0,31.0,-100.00,East,88,7.0,24.0,100,0.00,,,0.00,1.000000,,2013-01-29 22:33:00,
2013-01-29 14:42:00,31.0,31.0,-100.00,East,88,7.0,24.0,100,0.00,,,0.00,1.000000,,2013-01-29 22:42:00,
2013-01-29 14:53:00,31.0,31.0,-100.00,East,88,7.0,24.0,100,0.00,,,0.00,1.000000,,2013-01-29 22:53:00,
2013-01-29 15:01:00,31.0,31.0,-100.00,East,88,7.0,24.0,100,0.00,,,0.00,1.000000,,2013-01-29 23:01:00,
2013-01-29 15:33:00,31.0,31.0,-100.00,ENE,78,6.0,26.0,100,0.00,,,0.00,0.000000,,2013-01-29 23:33:00,
2013-01-29 15:42:00,31.0,31.0,-100.00,ENE,78,6.0,26.0,100,0.00,,,0.00,0.000000,,2013-01-29 23:42:00,
2013-01-29 15:53:00,31.0,31.0,-100.00,ENE,78,6.0,26.0,100,0.00,,,0.00,0.000000,,2013-01-29 23:53:00,
2013-01-29 16:02:00,31.0,31.0,-100.00,ENE,78,6.0,26.0,100,0.00,,,0.00,0.000000,,2013-01-30 00:02:00,
2013-01-29 16:33:00,31.0,31.0,-100.00,NW,320,5.0,17.0,100,0.00,,,0.00,0.000000,,2013-01-30 00:33:00,
2013-01-29 16:43:00,31.0,31.0,-100.00,NW,320,5.0,17.0,100,0.00,,,0.00,0.000000,,2013-01-30 00:43:00,
2013-01-29 16:52:00,31.0,31.0,-100.00,NW,320,5.0,17.0,100,0.00,,,0.00,0.000000,,2013-01-30 00:52:00,
2013-01-29 17:01:00,31.0,31.0,-100.00,NW,320,5.0,17.0,100,0.00,,,0.00,0.000000,,2013-01-30 01:01:00,
2013-01-29 17:22:00,31.0,31.0,-100.00,East,100,8.0,20.0,100,0.00,,,0.00,0.000000,,2013-01-30 01:22:00,
2013-01-29 17:32:00,31.0,31.0,-100.00,East,100,8.0,20.0,100,0.00,,,0.00,0.000000,,2013-01-30 01:32:00,
2013-01-29 17:42:00,31.0,31.0,-100.00,East,100,8.0,20.0,100,0.00,,,0.00,0.000000,,2013-01-30 01:42:00,
2013-01-29 17:52:00,31.0,31.0,-100.00,East,100,8.0,20.0,100,0.00,,,0.00,0.000000,,2013-01-30 01:52:00,
2013-01-29 18:01:00,31.0,31.0,-100.00,East,100,8.0,20.0,100,0.00,,,0.00,0.000000,,2013-01-30 02:01:00,
2013-01-29 18:22:00,32.0,32.0,-100.00,East,79,10.0,21.0,100,0.00,,,0.00,0.000000,,2013-01-30 02:22:00,
2013-01-29 18:33:00,32.0,32.0,-100.00,East,79,10.0,21.0,100,0.00,,,0.00,0.000000,,2013-01-30 02:33:00,
2013-01-29 18:42:00,32.0,32.0,-100.00,East,79,10.0,21.0,100,0.00,,,0.00,0.000000,,2013-01-30 02:42:00,
2013-01-29 18:53:00,32.0,32.0,-100.00,East,79,10.0,21.0,100,0.00,,,0.00,0.000000,,2013-01-30 02:53:00,
2013-01-29 19:02:00,32.0,32.0,-100.00,East,79,10.0,21.0,100,0.00,,,0.00,0.000000,,2013-01-30 03:02:00,
2013-01-29 19:22:00,32.0,32.0,-100.00,West,272,9.0,21.0,100,0.00,,,0.00,0.000000,,2013-01-30 03:22:00,
2013-01-29 19:32:00,32.0,32.0,-100.00,West,272,9.0,21.0,100,0.00,,,0.00,0.000000,,2013-01-30 03:32:00,
2013-01-29 19:42:00,32.0,32.0,-100.00,West,272,9.0,21.0,100,0.00,,,0.00,0.000000,,2013-01-30 03:42:00,
2013-01-29 19:52:00,32.0,32.0,-100.00,West,272,9.0,21.0,100,0.00,,,0.00,0.000000,,2013-01-30 03:52:00,
2013-01-29 20:01:00,32.0,32.0,-100.00,West,272,9.0,21.0,100,0.00,,,0.00,0.000000,,2013-01-30 04:01:00,
2013-01-29 20:32:00,32.0,32.0,-100.00,WNW,303,7.0,23.0,100,0.00,,,0.00,0.000000,,2013-01-30 04:32:00,
2013-01-29 20:42:00,32.0,32.0,-100.00,WNW,303,7.0,23.0,100,0.00,,,0.00,0.000000,,2013-01-30 04:42:00,
2013-01-29 20:52:00,32.0,32.0,-100.00,WNW,303,7.0,23.0,100,0.00,,,0.00,0.000000,,2013-01-30 04:52:00,
2013-01-29 21:03:00,32.0,32.0,-100.00,WNW,303,7.0,23.0,100,0.00,,,0.00,0.000000,,2013-01-30 05:03:00,
2013-01-29 21:22:00,32.0,32.0,-100.00,SW,219,8.0,22.0,100,0.00,,,0.00,0.000000,,2013-01-30 05:22:00,
2013-01-29 21:32:00,32.0,32.0,-100.00,SW,219,8.0,22.0,100,0.00,,,0.00,0.000000,,2013-01-30 05:32:00,
2013-01-29 21:43:00,32.0,32.0,-100.00,SW,219,8.0,22.0,100,0.00,,,0.00,0.000000,,2013-01-30 05:43:00,
2013-01-29 21:52:00,32.0,32.0,-100.00,SW,219,8.0,22.0,100,0.00,,,0.00,0.000000,,2013-01-30 05:52:00,
2013-01-29 22:02:00,32.0,32.0,-100.00,SW,219,8.0,22.0,100,0.00,,,0.00,0.000000,,2013-01-30 06:02:00,
2013-01-29 22:22:00,32.0,32.0,-100.00,East,94,9.0,21.0,100,0.00,,,0.00,0.000000,,2013-01-30 06:22:00,
2013-01-29 22:32:00,32.0,32.0,-100.00,East,94,9.0,21.0,100,0.00,,,0.00,0.000000,,2013-01-30 06:32:00,
2013-01-29 22:42:00,32.0,32.0,-100.00,East,94,9.0,21.0,100,0.00,,,0.00,0.000000,,2013-01-30 06:42:00,
2013-01-29 22:52:00,32.0,32.0,-100.00,East,94,9.0,21.0,100,0.00,,,0.00,0.000000,,2013-01-30 06:52:00,
2013-01-29 23:01:00,32.0,32.0,-100.00,East,94,9.0,21.0,100,0.00,,,0.00,0.000000,,2013-01-30 07:01:00,
2013-01-29 23:32:00,32.0,32.0,-100.00,East,100,8.0,29.0,100,0.00,,,0.00,0.000000,,2013-01-30 07:32:00,
2013-01-29 23:42:00,32.0,32.0,-100.00,East,100,8.0,29.0,100,0.00,,,0.00,0.000000,,2013-01-30 07:42:00,
2013-01-29 23:52:00,32.0,32.0,-100.00,East,100,8.0,29.0,100,0.00,,,0.00,0.000000,,2013-01-30 07:52:00,